Home > Weather > Santos > Past weeks

Flag for Brazil Past Weather in Santos, São Paulo, Brazil — Yesterday and Last 2 Weeks

Now
68 °F

Passing clouds.


Feels Like: 68 °F
Forecast: 59 / 73 °F
Wind: 9 mph from Southeast

Location: Sao Paulo Airport

Current Time: Aug 24, 2016 at 1:18:31 PM

Latest Report: Aug 24, 2016 at 1:00 PM


Visibility: N/A

Pressure: 30.27 "Hg

Humidity: 53%

Dew Point: 50 °F

Location of SantosLocation

Past Weather in Santos — Graph

°F

Santos Temperature Yesterday

Maximum temperature yesterday: 66 °F (at 2:00 PM)
Minimum temperature yesterday: 48 °F (at 6:00 AM)
Average temperature yesterday: 55 °F

High & Low Weather Summary for the Past Weeks

 TemperatureHumidityPressure
High86 °F (Aug 14, 2:00 PM)94% (Aug 10, 1:00 AM)30.33 "Hg (Aug 10, 1:00 AM)
Low48 °F (Aug 11, 2:00 AM)18% (Aug 14, 2:00 PM)29.89 "Hg (Aug 21, 5:00 AM)
Average61 °F73%30.14 "Hg
* Reported Aug 9 12:00 PM — Aug 24 12:00 PM, Santos, Weather by CustomWeather, © 2016

Note: Actual official high and low records may vary slightly from our data, if they occured in-between our weather recording intervals... More about our weather records

Advertising

Santos Weather History for the Previous 24 Hours

Scroll right to see more
 ConditionsComfort  
Time TempWeatherWind HumidityBarometerVisibility
12:00 PM
Wed, Aug 24
66 °FSunny.8 mph56%30.30 "Hg10 mi
11:00 AM64 °FPassing clouds.9 mph60%30.30 "HgN/A
10:00 AM61 °FPartly sunny.10 mph63%30.33 "HgN/A
9:00 AM59 °FPartly sunny.10 mph68%30.33 "HgN/A
8:00 AM57 °FBroken clouds.8 mph82%30.30 "HgN/A
7:00 AM57 °FPartly sunny.6 mph77%30.27 "HgN/A
6:00 AM57 °FOvercast.8 mph77%30.27 "HgN/A
5:00 AM57 °FOvercast.6 mph77%30.24 "HgN/A
4:00 AM57 °FMostly cloudy.7 mph77%30.24 "HgN/A
3:00 AM57 °FOvercast.12 mph77%30.24 "HgN/A
2:00 AM57 °FOvercast.8 mph77%30.27 "HgN/A
1:00 AM55 °FMostly cloudy.7 mph82%30.27 "HgN/A
12:00 AM55 °FOvercast.7 mph82%30.30 "HgN/A
11:46 PM
Tue, Aug 23
55 °FMostly cloudy.8 mph82%30.30 "HgN/A
11:02 PM55 °FMostly cloudy.8 mph82%30.30 "HgN/A
11:00 PM55 °FMostly cloudy.10 mph82%30.30 "HgN/A
10:00 PM55 °FLow clouds.7 mph88%30.30 "HgN/A
9:00 PM55 °FMostly cloudy.9 mph82%30.33 "HgN/A
8:00 PM55 °FMostly cloudy.9 mph82%30.30 "HgN/A
7:00 PM55 °FMostly cloudy.8 mph88%30.30 "HgN/A
6:00 PM55 °FMostly cloudy.10 mph88%30.27 "Hg4 mi
5:00 PM55 °FMostly cloudy.15 mph88%30.27 "HgN/A
4:00 PM57 °FBroken clouds.16 mph82%30.24 "HgN/A
3:00 PM64 °FSunny.15 mph64%30.24 "Hg10 mi
2:00 PM66 °FSunny.7 mph49%30.24 "Hg10 mi
1:00 PM64 °FSunny.8 mph56%30.27 "Hg10 mi
Weather by CustomWeather, © 2016

See weather overviewHow to use our weather pages